BMA13M EGAA-EGLL

Flight info

Callsign BMA13M
Flight time 0h 51m
Altitude 33000
Route LISBO DCT RINGA Q39 ETIGA DCT INKOB Q39 NOMSU UQ4 WAL UY53 NUGRA
Aircraft A320/M-SDE3FGHIRWY/LB1

Departure

Time 2026-05-07 17:19
Airport Belfast International Airport (EGAA)

Arrival

Time 2026-05-07 18:10
Airport London Heathrow Airport (EGLL)
Time Latitude Longitude Altitude Speed Heading
2026-05-07 16:47 54.66072 -6.21327 272 ft 0 kts 245°
2026-05-07 17:13 54.66081 -6.21296 275 ft 4 kts 240°
2026-05-07 17:13 54.66096 -6.21260 278 ft 4 kts 212°
2026-05-07 17:13 54.66114 -6.21252 279 ft 0 kts 155°
2026-05-07 17:16 54.66106 -6.21246 273 ft 3 kts 155°
2026-05-07 17:16 54.66083 -6.21227 273 ft 5 kts 155°
2026-05-07 17:16 54.66052 -6.21144 272 ft 17 kts 77°
2026-05-07 17:17 54.66121 -6.20880 274 ft 28 kts 65°
2026-05-07 17:17 54.66204 -6.20572 272 ft 28 kts 66°
2026-05-07 17:17 54.66287 -6.20265 275 ft 26 kts 65°
2026-05-07 17:17 54.66357 -6.20004 276 ft 23 kts 65°
2026-05-07 17:18 54.66376 -6.19737 272 ft 24 kts 129°
2026-05-07 17:18 54.66255 -6.19712 272 ft 16 kts 246°
2026-05-07 17:18 54.66147 -6.20090 272 ft 68 kts 245°
2026-05-07 17:18 54.65851 -6.21196 272 ft 129 kts 246°
2026-05-07 17:19 54.65395 -6.22809 372 ft 160 kts 242°
2026-05-07 17:19 54.64942 -6.24527 1002 ft 157 kts 243°
2026-05-07 17:19 54.64531 -6.26263 1657 ft 155 kts 245°
2026-05-07 17:19 54.64083 -6.27997 2092 ft 165 kts 230°
2026-05-07 17:20 54.63120 -6.29172 2328 ft 183 kts 192°
2026-05-07 17:20 54.61873 -6.28761 2882 ft 191 kts 148°
2026-05-07 17:20 54.60938 -6.26969 3251 ft 215 kts 130°
2026-05-07 17:20 54.59967 -6.24827 3634 ft 239 kts 132°
2026-05-07 17:21 54.58874 -6.22511 4179 ft 257 kts 132°
2026-05-07 17:21 54.57725 -6.20088 4997 ft 264 kts 132°
2026-05-07 17:21 54.56552 -6.17614 5872 ft 268 kts 132°
2026-05-07 17:21 54.55366 -6.15105 6729 ft 273 kts 131°
2026-05-07 17:22 54.54158 -6.12543 7533 ft 278 kts 131°
2026-05-07 17:22 54.52939 -6.09923 8333 ft 284 kts 128°
2026-05-07 17:22 54.51977 -6.06908 9150 ft 292 kts 115°
2026-05-07 17:22 54.51206 -6.03698 9928 ft 296 kts 115°
2026-05-07 17:23 54.50385 -6.00301 10381 ft 314 kts 115°
2026-05-07 17:23 54.49524 -5.96748 10578 ft 337 kts 115°
2026-05-07 17:23 54.48891 -5.94142 10749 ft 350 kts 114°
2026-05-07 17:24 54.48656 -5.93173 10848 ft 353 kts 114°
2026-05-07 17:24 54.47702 -5.89242 11469 ft 359 kts 114°
2026-05-07 17:24 54.46735 -5.85261 12146 ft 363 kts 114°
2026-05-07 17:24 54.45740 -5.81168 12346 ft 382 kts 114°
2026-05-07 17:25 54.44689 -5.76852 12491 ft 401 kts 114°
2026-05-07 17:25 54.43592 -5.72354 12762 ft 414 kts 114°
2026-05-07 17:25 54.42468 -5.67762 13329 ft 419 kts 114°
2026-05-07 17:25 54.41327 -5.63129 13925 ft 423 kts 114°
2026-05-07 17:26 54.40134 -5.58483 14448 ft 426 kts 120°
2026-05-07 17:26 54.38481 -5.54267 14980 ft 427 kts 129°
2026-05-07 17:26 54.36688 -5.50182 15505 ft 430 kts 129°
2026-05-07 17:26 54.34876 -5.46084 15938 ft 435 kts 129°
2026-05-07 17:27 54.33027 -5.41916 16323 ft 440 kts 129°
2026-05-07 17:27 54.31165 -5.37725 16849 ft 445 kts 129°
2026-05-07 17:27 54.29277 -5.33477 17685 ft 449 kts 129°
2026-05-07 17:27 54.27378 -5.29204 18476 ft 454 kts 129°
2026-05-07 17:28 54.25453 -5.24879 19195 ft 459 kts 129°
2026-05-07 17:28 54.23509 -5.20517 19941 ft 464 kts 129°
2026-05-07 17:28 54.21538 -5.16109 20684 ft 469 kts 129°
2026-05-07 17:28 54.19545 -5.11666 21414 ft 474 kts 129°
2026-05-07 17:29 54.17528 -5.07182 22139 ft 479 kts 129°
2026-05-07 17:29 54.15486 -5.02651 22846 ft 483 kts 129°
2026-05-07 17:29 54.13426 -4.98082 23480 ft 488 kts 129°
2026-05-07 17:29 54.11373 -4.93533 23974 ft 492 kts 129°
2026-05-07 17:30 54.09277 -4.88897 24438 ft 495 kts 129°
2026-05-07 17:30 54.07166 -4.84235 24822 ft 497 kts 129°
2026-05-07 17:30 54.05051 -4.79572 25199 ft 497 kts 129°
2026-05-07 17:30 54.02940 -4.74924 25624 ft 496 kts 129°
2026-05-07 17:31 54.00827 -4.70281 25987 ft 495 kts 129°
2026-05-07 17:31 53.98720 -4.65661 26312 ft 493 kts 129°
2026-05-07 17:31 53.96619 -4.61061 26607 ft 492 kts 129°
2026-05-07 17:31 53.94517 -4.56474 26878 ft 492 kts 129°
2026-05-07 17:32 53.92416 -4.51904 27106 ft 491 kts 129°
2026-05-07 17:32 53.90317 -4.47346 27357 ft 490 kts 129°
2026-05-07 17:32 53.88217 -4.42791 27573 ft 489 kts 129°
2026-05-07 17:32 53.86143 -4.38238 27769 ft 488 kts 128°
2026-05-07 17:33 53.84154 -4.33592 28153 ft 483 kts 126°
2026-05-07 17:33 53.82257 -4.28922 28604 ft 479 kts 125°
2026-05-07 17:33 53.80410 -4.24249 28971 ft 476 kts 124°
2026-05-07 17:33 53.78577 -4.19598 29307 ft 475 kts 124°
2026-05-07 17:34 53.76728 -4.14970 29641 ft 474 kts 125°
2026-05-07 17:34 53.74888 -4.10447 29980 ft 472 kts 126°
2026-05-07 17:34 53.73008 -4.05893 30277 ft 471 kts 126°
2026-05-07 17:34 53.71122 -4.01364 30545 ft 470 kts 126°
2026-05-07 17:35 53.69236 -3.96854 30818 ft 470 kts 126°
2026-05-07 17:35 53.67355 -3.92353 31103 ft 469 kts 126°
2026-05-07 17:35 53.65481 -3.87854 31385 ft 468 kts 126°
2026-05-07 17:35 53.63613 -3.83365 31653 ft 468 kts 126°
2026-05-07 17:36 53.61743 -3.78875 31929 ft 467 kts 126°
2026-05-07 17:36 53.59876 -3.74401 32219 ft 466 kts 126°
2026-05-07 17:36 53.58010 -3.69939 32502 ft 466 kts 126°
2026-05-07 17:36 53.56148 -3.65504 32790 ft 465 kts 126°
2026-05-07 17:37 53.54272 -3.61045 32962 ft 465 kts 126°
2026-05-07 17:37 53.52402 -3.56610 32995 ft 464 kts 126°
2026-05-07 17:37 53.48662 -3.47759 32986 ft 464 kts 126°
2026-05-07 17:38 53.45529 -3.38311 33002 ft 465 kts 114°
2026-05-07 17:38 53.42999 -3.28312 33006 ft 465 kts 114°
2026-05-07 17:39 53.40444 -3.18336 33012 ft 465 kts 114°
2026-05-07 17:39 53.37254 -3.09059 33028 ft 463 kts 128°
2026-05-07 17:40 53.33403 -3.00425 33032 ft 463 kts 128°
2026-05-07 17:40 53.29553 -2.91797 33027 ft 463 kts 128°
2026-05-07 17:41 53.25702 -2.83187 33031 ft 462 kts 128°
2026-05-07 17:41 53.21844 -2.74598 33030 ft 462 kts 128°
2026-05-07 17:42 53.17977 -2.66028 33035 ft 462 kts 128°
2026-05-07 17:42 53.14105 -2.57482 33031 ft 462 kts 128°
2026-05-07 17:43 53.10356 -2.48787 33027 ft 462 kts 126°
2026-05-07 17:43 53.06786 -2.39893 33027 ft 462 kts 125°
2026-05-07 17:44 53.02955 -2.31356 33024 ft 460 kts 136°
2026-05-07 17:44 52.97877 -2.24997 33021 ft 457 kts 149°
2026-05-07 17:45 52.92492 -2.19392 33012 ft 456 kts 149°
2026-05-07 17:45 52.87228 -2.13895 33024 ft 447 kts 149°
2026-05-07 17:46 52.81979 -2.08408 33021 ft 446 kts 149°
2026-05-07 17:46 52.76727 -2.02942 33021 ft 446 kts 149°
2026-05-07 17:47 52.71471 -1.97500 33022 ft 446 kts 150°
2026-05-07 17:47 52.66212 -1.92069 32358 ft 447 kts 150°
2026-05-07 17:48 52.63534 -1.89314 30993 ft 460 kts 150°
2026-05-07 17:48 52.60796 -1.86500 29713 ft 467 kts 150°
2026-05-07 17:48 52.58032 -1.83660 28623 ft 467 kts 150°
2026-05-07 17:48 52.55302 -1.80851 28036 ft 458 kts 150°
2026-05-07 17:49 52.52616 -1.78085 27367 ft 452 kts 150°
2026-05-07 17:49 52.49963 -1.75361 26724 ft 446 kts 150°
2026-05-07 17:49 52.47344 -1.72680 26086 ft 441 kts 150°
2026-05-07 17:49 52.44754 -1.70035 25458 ft 437 kts 150°
2026-05-07 17:50 52.42180 -1.67419 24830 ft 433 kts 150°
2026-05-07 17:50 52.39629 -1.64834 24213 ft 429 kts 150°
2026-05-07 17:50 52.37099 -1.62269 23587 ft 426 kts 150°
2026-05-07 17:50 52.34620 -1.59750 22924 ft 422 kts 150°
2026-05-07 17:51 52.32143 -1.57231 22347 ft 416 kts 150°
2026-05-07 17:51 52.29701 -1.54748 21800 ft 411 kts 150°
2026-05-07 17:51 52.27285 -1.52298 21266 ft 407 kts 150°
2026-05-07 17:51 52.24888 -1.49879 20737 ft 403 kts 150°
2026-05-07 17:52 52.22514 -1.47482 20226 ft 400 kts 149°
2026-05-07 17:52 52.20987 -1.45690 19889 ft 400 kts 142°
2026-05-07 17:52 52.18888 -1.42756 19511 ft 396 kts 141°
2026-05-07 17:52 52.16808 -1.39844 19111 ft 393 kts 141°
2026-05-07 17:53 52.14761 -1.36987 18715 ft 390 kts 141°
2026-05-07 17:53 52.12706 -1.34122 18326 ft 388 kts 141°
2026-05-07 17:53 52.10662 -1.31277 17893 ft 386 kts 141°
2026-05-07 17:53 52.08626 -1.28450 17501 ft 383 kts 141°
2026-05-07 17:54 52.06605 -1.25650 17108 ft 380 kts 141°
2026-05-07 17:54 52.04628 -1.22905 16917 ft 366 kts 141°
2026-05-07 17:54 52.02729 -1.20266 16780 ft 353 kts 141°
2026-05-07 17:54 52.00897 -1.17723 16627 ft 340 kts 141°
2026-05-07 17:55 51.99129 -1.15275 16500 ft 329 kts 141°
2026-05-07 17:55 51.97418 -1.12908 16365 ft 318 kts 141°
2026-05-07 17:55 51.95754 -1.10616 16231 ft 309 kts 142°
2026-05-07 17:55 51.94139 -1.08396 16100 ft 300 kts 142°
2026-05-07 17:56 51.92575 -1.06242 15974 ft 291 kts 142°
2026-05-07 17:56 51.91019 -1.04103 15350 ft 301 kts 142°
2026-05-07 17:56 51.89401 -1.01887 14833 ft 306 kts 142°
2026-05-07 17:56 51.87778 -0.99664 14475 ft 305 kts 142°
2026-05-07 17:57 51.86165 -0.97434 14134 ft 304 kts 139°
2026-05-07 17:57 51.84847 -0.94772 13811 ft 305 kts 121°
2026-05-07 17:57 51.83901 -0.91702 13432 ft 304 kts 118°
2026-05-07 17:57 51.82983 -0.88667 13268 ft 296 kts 118°
2026-05-07 17:58 51.82090 -0.85728 13125 ft 287 kts 118°
2026-05-07 17:58 51.81219 -0.82879 12991 ft 278 kts 118°
2026-05-07 17:58 51.80374 -0.80121 12867 ft 270 kts 118°
2026-05-07 17:58 51.79548 -0.77428 12658 ft 265 kts 118°
2026-05-07 17:59 51.78730 -0.74767 12385 ft 264 kts 118°
2026-05-07 17:59 51.77915 -0.72126 12098 ft 262 kts 118°
2026-05-07 17:59 51.77082 -0.69514 11808 ft 260 kts 125°
2026-05-07 17:59 51.75814 -0.67532 11524 ft 253 kts 154°
2026-05-07 18:00 51.74143 -0.66859 11206 ft 248 kts 184°
2026-05-07 18:00 51.72448 -0.67326 10889 ft 247 kts 194°
2026-05-07 18:00 51.70809 -0.68017 10589 ft 247 kts 196°
2026-05-07 18:00 51.69143 -0.68749 10306 ft 246 kts 196°
2026-05-07 18:01 51.67498 -0.69477 9849 ft 244 kts 196°
2026-05-07 18:01 51.65861 -0.70200 9313 ft 243 kts 196°
2026-05-07 18:01 51.64234 -0.70924 8794 ft 242 kts 196°
2026-05-07 18:01 51.62616 -0.71649 8295 ft 241 kts 196°
2026-05-07 18:02 51.59410 -0.73093 7364 ft 235 kts 196°
2026-05-07 18:02 51.57891 -0.73786 7231 ft 219 kts 196°
2026-05-07 18:02 51.56482 -0.74412 7075 ft 201 kts 196°
2026-05-07 18:03 51.55304 -0.75489 6732 ft 196 kts 231°
2026-05-07 18:03 51.54791 -0.77463 6449 ft 194 kts 263°
2026-05-07 18:03 51.54721 -0.79638 6098 ft 196 kts 270°
2026-05-07 18:03 51.54735 -0.81827 5820 ft 196 kts 271°
2026-05-07 18:04 51.54762 -0.84006 5538 ft 195 kts 270°
2026-05-07 18:04 51.54499 -0.86098 5257 ft 192 kts 237°
2026-05-07 18:04 51.53511 -0.87449 4959 ft 188 kts 197°
2026-05-07 18:04 51.52231 -0.87434 4784 ft 188 kts 156°
2026-05-07 18:05 51.51139 -0.86277 4628 ft 190 kts 139°
2026-05-07 18:05 51.50163 -0.84851 4436 ft 189 kts 136°
2026-05-07 18:05 51.49214 -0.83394 4253 ft 189 kts 136°
2026-05-07 18:05 51.48292 -0.81899 4103 ft 188 kts 127°
2026-05-07 18:06 51.47699 -0.80041 3953 ft 188 kts 104°
2026-05-07 18:06 51.47587 -0.77984 3737 ft 188 kts 90°
2026-05-07 18:06 51.47602 -0.75889 3500 ft 188 kts 90°
2026-05-07 18:06 51.47617 -0.73799 3252 ft 187 kts 90°
2026-05-07 18:07 51.47630 -0.71713 2997 ft 187 kts 90°
2026-05-07 18:07 51.47643 -0.69631 2740 ft 187 kts 90°
2026-05-07 18:07 51.47655 -0.67550 2491 ft 186 kts 91°
2026-05-07 18:07 51.47667 -0.65503 2271 ft 183 kts 91°
2026-05-07 18:08 51.47678 -0.63468 1995 ft 180 kts 91°
2026-05-07 18:08 51.47688 -0.61512 1742 ft 171 kts 91°
2026-05-07 18:08 51.47698 -0.59624 1515 ft 167 kts 91°
2026-05-07 18:08 51.47707 -0.57776 1292 ft 159 kts 91°
2026-05-07 18:09 51.47715 -0.56085 1081 ft 148 kts 92°
2026-05-07 18:09 51.47723 -0.54477 868 ft 141 kts 91°
2026-05-07 18:09 51.47732 -0.52923 679 ft 137 kts 91°
2026-05-07 18:09 51.47741 -0.51399 501 ft 136 kts 93°
2026-05-07 18:10 51.47749 -0.49893 296 ft 134 kts 92°
2026-05-07 18:10 51.47751 -0.48402 119 ft 134 kts 92°
2026-05-07 18:10 51.47753 -0.47056 88 ft 100 kts 90°
2026-05-07 18:10 51.47758 -0.46277 90 ft 33 kts 90°
2026-05-07 18:11 51.47665 -0.46112 86 ft 18 kts 143°
2026-05-07 18:11 51.47593 -0.46062 87 ft 17 kts 187°
2026-05-07 18:11 51.47517 -0.45975 87 ft 7 kts 89°
2026-05-07 18:11 51.47517 -0.45928 87 ft 5 kts 89°
2026-05-07 18:12 51.47517 -0.45891 87 ft 0 kts 89°
2026-05-07 18:12 51.47517 -0.45882 87 ft 2 kts 89°
2026-05-07 18:13 51.47518 -0.45842 87 ft 5 kts 89°
2026-05-07 18:13 51.47515 -0.45771 87 ft 8 kts 97°
2026-05-07 18:13 51.47507 -0.45666 90 ft 11 kts 92°
2026-05-07 18:13 51.47507 -0.45527 87 ft 14 kts 89°
2026-05-07 18:14 51.47508 -0.45356 89 ft 17 kts 90°
2026-05-07 18:14 51.47509 -0.45154 90 ft 19 kts 89°
2026-05-07 18:14 51.47509 -0.44923 90 ft 22 kts 90°
2026-05-07 18:14 51.47508 -0.44667 89 ft 24 kts 90°
2026-05-07 18:15 51.47500 -0.44582 88 ft 7 kts 124°
2026-05-07 18:15 51.47446 -0.44556 87 ft 9 kts 197°
2026-05-07 18:15 51.47371 -0.44561 90 ft 11 kts 179°
2026-05-07 18:15 51.47344 -0.44632 87 ft 10 kts 273°
2026-05-07 18:16 51.47344 -0.44716 87 ft 3 kts 269°
2026-05-07 18:16 51.47344 -0.44727 87 ft 0 kts 270°